sat.trackr.live / text

‹ back to catalog

STARLINK-4121

NORAD 53002 · 2022-076S

PAYLOAD ACTIVE UNKNOWN

§ Identity

Operator
Country
US
Launch date
2022-07-07
Launch site
AFETR
Launch vehicle
Mass (kg)
RCS (m²)

Purposes: comms

External: N2YO · Heavens-Above · Gunter

§ Orbital elements

Epoch: 2026-05-25T04:37:53.770080Z

Period
95.44 min
Inclination
53.2139°
Eccentricity
0.0001532
Mean motion
15.08845462 rev/d
Perigee alt
538.7 km
Apogee alt
540.8 km
Semi-major
6,917.9 km
B*
5.6250e-5
RAAN
110.6832°
Arg perigee
84.6391°
Mean anomaly
275.4776°
Rev number
21,439

§ Raw data

STARLINK-41211 53002U 22076S   26145.19298345  .00000607  00000+0  56250-4 0  99902 53002  53.2139 110.6832 0001532  84.6391 275.4776 15.08845462214398

JSON: /api/v1/satellites/53002 · /tle

For live sub-satellite position, see the globe view (requires WebGL).

§ Visibility from observer

Set your observer location to see the next 7 days of passes ≥ 10°. The values pass through the URL so the page stays shareable.

No JS? Fill the form by hand. The geolocation button needs JavaScript.